Time,TemperatureF,DewpointF,PressureIn,WindDirection,WindDirectionDegrees,WindSpeedMPH,WindSpeedGustMPH,Humidity,HourlyPrecipIn,Conditions,Clouds,dailyrainin,SolarRadiationWatts/m^2,SoftwareType,DateUTC
2013-04-16 00:03:00,51.6,30.4,29.91,NW,320,10.0,16.0,44,0.00,,,0.00,0,WeatherTracker,2013-04-16 07:03:00,
2013-04-16 00:08:00,51.6,30.4,29.91,WNW,299,9.0,20.0,44,0.00,,,0.00,0,WeatherTracker,2013-04-16 07:08:00,
2013-04-16 00:13:00,51.5,29.8,29.91,West,280,6.0,21.0,43,0.00,,,0.00,0,WeatherTracker,2013-04-16 07:13:00,
2013-04-16 00:18:00,51.5,30.3,29.91,NNW,341,1.0,21.0,44,0.00,,,0.00,0,WeatherTracker,2013-04-16 07:18:00,
2013-04-16 00:23:00,51.4,30.2,29.91,NW,315,1.0,17.0,44,0.00,,,0.00,0,WeatherTracker,2013-04-16 07:23:00,
2013-04-16 00:28:00,51.2,30.0,29.91,West,277,10.0,16.0,44,0.00,,,0.00,0,WeatherTracker,2013-04-16 07:28:00,
2013-04-16 00:33:00,51.1,29.4,29.92,North,351,7.0,16.0,43,0.00,,,0.00,0,WeatherTracker,2013-04-16 07:33:00,
2013-04-16 00:38:00,51.1,30.0,29.91,NW,318,14.0,23.0,44,0.00,,,0.00,0,WeatherTracker,2013-04-16 07:38:00,
2013-04-16 00:43:00,51.2,29.5,29.92,NNW,327,8.0,25.0,43,0.00,,,0.00,0,WeatherTracker,2013-04-16 07:43:00,
2013-04-16 00:48:00,51.2,29.5,29.92,NW,306,11.0,25.0,43,0.00,,,0.00,0,WeatherTracker,2013-04-16 07:48:00,
2013-04-16 00:53:00,51.2,29.5,29.92,WNW,295,9.0,21.0,43,0.00,,,0.00,0,WeatherTracker,2013-04-16 07:53:00,
2013-04-16 00:58:00,51.1,29.4,29.92,WNW,290,0.0,22.0,43,0.00,,,0.00,0,WeatherTracker,2013-04-16 07:58:00,
2013-04-16 01:03:00,51.1,29.4,29.92,NNW,337,12.0,22.0,43,0.00,,,0.00,0,WeatherTracker,2013-04-16 08:03:00,
2013-04-16 01:08:00,51.1,29.4,29.93,NW,309,8.0,22.0,43,0.00,,,0.00,0,WeatherTracker,2013-04-16 08:08:00,
2013-04-16 01:13:00,51.0,29.3,29.92,NNW,327,1.0,21.0,43,0.00,,,0.00,0,WeatherTracker,2013-04-16 08:13:00,
2013-04-16 01:18:00,51.0,29.3,29.93,WNW,299,5.0,22.0,43,0.00,,,0.00,0,WeatherTracker,2013-04-16 08:18:00,
2013-04-16 01:23:00,51.0,29.3,29.93,NNW,336,1.0,23.0,43,0.00,,,0.00,0,WeatherTracker,2013-04-16 08:23:00,
2013-04-16 01:28:00,50.9,29.2,29.93,NW,316,13.0,23.0,43,0.00,,,0.00,0,WeatherTracker,2013-04-16 08:28:00,
2013-04-16 01:34:00,50.8,29.1,29.93,WNW,302,10.0,22.0,43,0.00,,,0.00,0,WeatherTracker,2013-04-16 08:34:00,
2013-04-16 01:39:00,50.8,29.1,29.93,WNW,296,9.0,22.0,43,0.00,,,0.00,0,WeatherTracker,2013-04-16 08:39:00,
2013-04-16 01:44:00,50.7,29.6,29.93,West,281,8.0,22.0,44,0.00,,,0.00,0,WeatherTracker,2013-04-16 08:44:00,
2013-04-16 01:49:00,50.6,29.5,29.93,NW,311,6.0,22.0,44,0.00,,,0.00,0,WeatherTracker,2013-04-16 08:49:00,
2013-04-16 01:54:00,50.5,29.4,29.93,NW,313,6.0,22.0,44,0.00,,,0.00,0,WeatherTracker,2013-04-16 08:54:00,
2013-04-16 01:59:00,50.5,29.4,29.93,NW,308,9.0,22.0,44,0.00,,,0.00,0,WeatherTracker,2013-04-16 08:59:00,
2013-04-16 02:04:00,50.5,29.4,29.94,WNW,287,12.0,22.0,44,0.00,,,0.00,0,WeatherTracker,2013-04-16 09:04:00,
2013-04-16 02:09:00,50.5,29.4,29.93,NW,319,16.0,22.0,44,0.00,,,0.00,0,WeatherTracker,2013-04-16 09:09:00,
2013-04-16 02:14:00,50.5,29.4,29.94,NW,325,10.0,22.0,44,0.00,,,0.00,0,WeatherTracker,2013-04-16 09:14:00,
2013-04-16 02:19:00,50.5,29.4,29.94,WNW,300,9.0,21.0,44,0.00,,,0.00,0,WeatherTracker,2013-04-16 09:19:00,
2013-04-16 02:24:00,50.5,29.4,29.94,WNW,299,2.0,21.0,44,0.00,,,0.00,0,WeatherTracker,2013-04-16 09:24:00,
2013-04-16 02:29:00,50.4,29.3,29.94,NW,306,0.0,21.0,44,0.00,,,0.00,0,WeatherTracker,2013-04-16 09:29:00,
2013-04-16 02:34:00,50.3,29.2,29.94,North,5,12.0,19.0,44,0.00,,,0.00,0,WeatherTracker,2013-04-16 09:34:00,
2013-04-16 02:39:00,50.2,29.1,29.94,NW,309,1.0,23.0,44,0.00,,,0.00,0,WeatherTracker,2013-04-16 09:39:00,
2013-04-16 02:44:00,50.1,29.0,29.94,NW,324,17.0,23.0,44,0.00,,,0.00,0,WeatherTracker,2013-04-16 09:44:00,
2013-04-16 02:49:00,50.0,29.0,29.94,NNW,340,2.0,23.0,44,0.00,,,0.00,0,WeatherTracker,2013-04-16 09:49:00,
2013-04-16 02:54:00,49.9,28.9,29.95,WNW,296,16.0,23.0,44,0.00,,,0.00,0,WeatherTracker,2013-04-16 09:54:00,
2013-04-16 02:59:00,49.8,28.8,29.95,NW,305,1.0,21.0,44,0.00,,,0.00,0,WeatherTracker,2013-04-16 09:59:00,
2013-04-16 03:04:00,49.7,29.2,29.95,NNW,327,6.0,23.0,45,0.00,,,0.00,0,WeatherTracker,2013-04-16 10:04:00,
2013-04-16 03:09:00,49.6,29.1,29.95,West,279,15.0,23.0,45,0.00,,,0.00,0,WeatherTracker,2013-04-16 10:09:00,
2013-04-16 03:14:00,49.6,29.1,29.95,NNW,329,9.0,20.0,45,0.00,,,0.00,0,WeatherTracker,2013-04-16 10:14:00,
2013-04-16 03:19:00,49.5,29.0,29.95,NW,319,6.0,22.0,45,0.00,,,0.00,0,WeatherTracker,2013-04-16 10:19:00,
2013-04-16 03:24:00,49.5,29.0,29.96,NNW,330,10.0,22.0,45,0.00,,,0.00,0,WeatherTracker,2013-04-16 10:24:00,
2013-04-16 03:30:00,49.4,29.5,29.96,NW,323,0.0,19.0,46,0.00,,,0.00,0,WeatherTracker,2013-04-16 10:30:00,
2013-04-16 03:35:00,49.3,29.4,29.96,NNW,345,3.0,19.0,46,0.00,,,0.00,0,WeatherTracker,2013-04-16 10:35:00,
2013-04-16 03:40:00,49.2,29.3,29.96,WNW,290,13.0,19.0,46,0.00,,,0.00,0,WeatherTracker,2013-04-16 10:40:00,
2013-04-16 03:45:00,49.2,29.3,29.96,NW,317,8.0,18.0,46,0.00,,,0.00,0,WeatherTracker,2013-04-16 10:45:00,
2013-04-16 03:50:00,49.2,29.3,29.96,NW,312,5.0,20.0,46,0.00,,,0.00,0,WeatherTracker,2013-04-16 10:50:00,
2013-04-16 03:55:00,49.2,29.3,29.96,NW,311,13.0,20.0,46,0.00,,,0.00,0,WeatherTracker,2013-04-16 10:55:00,
2013-04-16 04:00:00,49.2,28.8,29.96,West,275,6.0,18.0,45,0.00,,,0.00,0,WeatherTracker,2013-04-16 11:00:00,
2013-04-16 04:05:00,49.2,28.8,29.96,NNW,348,9.0,19.0,45,0.00,,,0.00,0,WeatherTracker,2013-04-16 11:05:00,
2013-04-16 04:10:00,49.2,28.8,29.97,WNW,288,8.0,19.0,45,0.00,,,0.00,0,WeatherTracker,2013-04-16 11:10:00,
2013-04-16 04:15:00,49.2,28.8,29.97,NNW,327,8.0,20.0,45,0.00,,,0.00,0,WeatherTracker,2013-04-16 11:15:00,
2013-04-16 04:20:00,49.2,28.8,29.97,WNW,286,8.0,25.0,45,0.00,,,0.00,0,WeatherTracker,2013-04-16 11:20:00,
2013-04-16 04:25:00,49.2,28.8,29.97,WNW,302,16.0,25.0,45,0.00,,,0.00,0,WeatherTracker,2013-04-16 11:25:00,
2013-04-16 04:30:00,49.2,28.8,29.98,NNW,329,15.0,20.0,45,0.00,,,0.00,0,WeatherTracker,2013-04-16 11:30:00,
2013-04-16 04:35:00,49.1,29.2,29.98,North,355,10.0,22.0,46,0.00,,,0.00,0,WeatherTracker,2013-04-16 11:35:00,
2013-04-16 04:40:00,49.1,28.7,29.98,WNW,294,11.0,23.0,45,0.00,,,0.00,0,WeatherTracker,2013-04-16 11:40:00,
2013-04-16 04:45:00,49.0,29.1,29.98,WNW,294,9.0,23.0,46,0.00,,,0.00,0,WeatherTracker,2013-04-16 11:45:00,
2013-04-16 04:50:00,49.0,29.1,29.98,West,269,6.0,18.0,46,0.00,,,0.00,0,WeatherTracker,2013-04-16 11:50:00,
2013-04-16 04:55:00,48.9,29.0,29.98,WNW,299,1.0,22.0,46,0.00,,,0.00,0,WeatherTracker,2013-04-16 11:55:00,
2013-04-16 05:01:00,48.9,29.0,29.98,WNW,300,13.0,22.0,46,0.00,,,0.00,0,WeatherTracker,2013-04-16 12:01:00,
2013-04-16 05:06:00,48.9,29.0,29.98,West,281,16.0,21.0,46,0.00,,,0.00,0,WeatherTracker,2013-04-16 12:06:00,
2013-04-16 05:11:00,48.9,29.0,29.98,NW,305,0.0,23.0,46,0.00,,,0.00,0,WeatherTracker,2013-04-16 12:11:00,
2013-04-16 05:16:00,49.0,29.1,29.99,NW,324,12.0,23.0,46,0.00,,,0.00,0,WeatherTracker,2013-04-16 12:16:00,
2013-04-16 05:21:00,48.9,29.0,29.99,WNW,290,9.0,22.0,46,0.00,,,0.00,0,WeatherTracker,2013-04-16 12:21:00,
2013-04-16 05:26:00,49.0,28.6,29.99,North,355,27.0,27.0,45,0.00,,,0.00,0,WeatherTracker,2013-04-16 12:26:00,
2013-04-16 05:31:00,49.0,28.6,29.99,NW,309,18.0,29.0,45,0.00,,,0.00,0,WeatherTracker,2013-04-16 12:31:00,
2013-04-16 05:36:00,49.0,28.6,29.99,West,275,18.0,29.0,45,0.00,,,0.00,0,WeatherTracker,2013-04-16 12:36:00,
2013-04-16 05:41:00,49.0,28.6,29.99,NW,313,5.0,23.0,45,0.00,,,0.00,0,WeatherTracker,2013-04-16 12:41:00,
2013-04-16 05:46:00,49.0,28.6,30.00,West,279,16.0,23.0,45,0.00,,,0.00,0,WeatherTracker,2013-04-16 12:46:00,
2013-04-16 05:51:00,49.1,28.7,30.00,NW,305,12.0,26.0,45,0.00,,,0.00,0,WeatherTracker,2013-04-16 12:51:00,
2013-04-16 05:56:00,49.2,28.8,30.00,NW,325,12.0,29.0,45,0.00,,,0.00,0,WeatherTracker,2013-04-16 12:56:00,
2013-04-16 06:01:00,49.2,28.8,30.00,NW,308,13.0,29.0,45,0.00,,,0.00,0,WeatherTracker,2013-04-16 13:01:00,
2013-04-16 06:06:00,49.2,28.8,30.01,NNW,330,11.0,26.0,45,0.00,,,0.00,0,WeatherTracker,2013-04-16 13:06:00,
2013-04-16 06:11:00,49.2,28.8,30.01,NNW,329,10.0,30.0,45,0.00,,,0.00,0,WeatherTracker,2013-04-16 13:11:00,
2013-04-16 06:16:00,49.3,28.9,30.01,NNW,346,11.0,30.0,45,0.00,,,0.00,0,WeatherTracker,2013-04-16 13:16:00,
2013-04-16 06:21:00,49.3,28.9,30.01,NNW,342,16.0,29.0,45,0.00,,,0.00,0,WeatherTracker,2013-04-16 13:21:00,
2013-04-16 06:26:00,49.3,28.9,30.02,NNW,329,13.0,25.0,45,0.00,,,0.00,0,WeatherTracker,2013-04-16 13:26:00,
2013-04-16 06:31:00,49.3,28.9,30.02,NW,323,16.0,27.0,45,0.00,,,0.00,5,WeatherTracker,2013-04-16 13:31:00,
2013-04-16 06:36:00,49.3,28.3,30.02,WNW,299,22.0,27.0,44,0.00,,,0.00,9,WeatherTracker,2013-04-16 13:36:00,
2013-04-16 06:42:00,49.4,29.0,30.02,WNW,300,9.0,28.0,45,0.00,,,0.00,11,WeatherTracker,2013-04-16 13:42:00,
2013-04-16 06:46:00,49.3,28.9,30.02,NW,309,9.0,28.0,45,0.00,,,0.00,14,WeatherTracker,2013-04-16 13:46:00,
2013-04-16 06:52:00,49.2,28.8,30.03,NNW,346,14.0,23.0,45,0.00,,,0.00,16,WeatherTracker,2013-04-16 13:52:00,
2013-04-16 06:57:00,49.2,28.8,30.03,WNW,302,9.0,23.0,45,0.00,,,0.00,18,WeatherTracker,2013-04-16 13:57:00,
2013-04-16 07:02:00,49.2,28.8,30.04,NW,319,22.0,22.0,45,0.00,,,0.00,21,WeatherTracker,2013-04-16 14:02:00,
2013-04-16 07:07:00,49.4,29.0,30.04,WNW,300,13.0,23.0,45,0.00,,,0.00,23,WeatherTracker,2013-04-16 14:07:00,
2013-04-16 07:12:00,49.4,29.0,30.04,NW,312,17.0,23.0,45,0.00,,,0.00,25,WeatherTracker,2013-04-16 14:12:00,
2013-04-16 07:17:00,49.6,29.1,30.04,NNW,331,9.0,23.0,45,0.00,,,0.00,26,WeatherTracker,2013-04-16 14:17:00,
2013-04-16 07:22:00,49.7,29.2,30.04,WNW,285,2.0,24.0,45,0.00,,,0.00,84,WeatherTracker,2013-04-16 14:22:00,
2013-04-16 07:27:00,50.0,29.0,30.04,WNW,302,10.0,24.0,44,0.00,,,0.00,104,WeatherTracker,2013-04-16 14:27:00,
2013-04-16 07:32:00,50.2,29.1,30.04,West,279,10.0,20.0,44,0.00,,,0.00,123,WeatherTracker,2013-04-16 14:32:00,
2013-04-16 07:37:00,50.4,29.3,30.05,NW,323,0.0,27.0,44,0.00,,,0.00,144,WeatherTracker,2013-04-16 14:37:00,
2013-04-16 07:42:00,50.6,29.5,30.05,NW,315,7.0,27.0,44,0.00,,,0.00,165,WeatherTracker,2013-04-16 14:42:00,
2013-04-16 07:47:00,51.0,29.9,30.05,NNW,346,11.0,27.0,44,0.00,,,0.00,186,WeatherTracker,2013-04-16 14:47:00,
2013-04-16 07:52:00,51.3,29.6,30.05,NNW,329,14.0,19.0,43,0.00,,,0.00,207,WeatherTracker,2013-04-16 14:52:00,
2013-04-16 07:57:00,51.6,30.4,30.05,NNW,335,11.0,20.0,44,0.00,,,0.00,227,WeatherTracker,2013-04-16 14:57:00,
2013-04-16 08:02:00,51.8,29.4,30.05,WNW,284,12.0,28.0,42,0.00,,,0.00,244,WeatherTracker,2013-04-16 15:02:00,
2013-04-16 08:07:00,52.1,30.3,30.05,North,360,15.0,28.0,43,0.00,,,0.00,260,WeatherTracker,2013-04-16 15:07:00,
2013-04-16 08:12:00,52.4,30.0,30.05,NW,315,9.0,24.0,42,0.00,,,0.00,274,WeatherTracker,2013-04-16 15:12:00,
2013-04-16 08:17:00,52.6,30.2,30.06,WNW,290,12.0,25.0,42,0.00,,,0.00,292,WeatherTracker,2013-04-16 15:17:00,
2013-04-16 08:23:00,52.8,30.3,30.05,NNW,331,18.0,30.0,42,0.00,,,0.00,309,WeatherTracker,2013-04-16 15:23:00,
2013-04-16 08:28:00,53.0,30.5,30.06,WNW,300,8.0,30.0,42,0.00,,,0.00,329,WeatherTracker,2013-04-16 15:28:00,
2013-04-16 08:33:00,53.3,30.2,30.06,WNW,284,12.0,26.0,41,0.00,,,0.00,345,WeatherTracker,2013-04-16 15:33:00,
2013-04-16 08:38:00,53.6,30.5,30.06,NW,321,29.0,29.0,41,0.00,,,0.00,362,WeatherTracker,2013-04-16 15:38:00,
2013-04-16 08:43:00,53.8,30.7,30.06,NW,313,7.0,29.0,41,0.00,,,0.00,380,WeatherTracker,2013-04-16 15:43:00,
2013-04-16 08:48:00,54.2,30.4,30.06,NW,325,9.0,29.0,40,0.00,,,0.00,397,WeatherTracker,2013-04-16 15:48:00,
2013-04-16 08:53:00,54.7,30.9,30.06,NNW,347,28.0,28.0,40,0.00,,,0.00,413,WeatherTracker,2013-04-16 15:53:00,
2013-04-16 08:58:00,55.1,30.0,30.06,NNW,328,13.0,28.0,38,0.00,,,0.00,429,WeatherTracker,2013-04-16 15:58:00,
2013-04-16 09:03:00,55.3,30.1,30.06,NW,306,25.0,30.0,38,0.00,,,0.00,448,WeatherTracker,2013-04-16 16:03:00,
2013-04-16 09:08:00,55.6,30.4,30.06,NW,317,13.0,30.0,38,0.00,,,0.00,464,WeatherTracker,2013-04-16 16:08:00,
2013-04-16 09:13:00,56.0,30.1,30.06,NW,304,5.0,30.0,37,0.00,,,0.00,482,WeatherTracker,2013-04-16 16:13:00,
2013-04-16 09:18:00,56.4,30.5,30.06,NW,323,17.0,26.0,37,0.00,,,0.00,497,WeatherTracker,2013-04-16 16:18:00,
2013-04-16 09:23:00,56.7,30.7,30.06,NW,325,16.0,28.0,37,0.00,,,0.00,510,WeatherTracker,2013-04-16 16:23:00,
2013-04-16 09:28:00,56.9,30.2,30.07,NW,304,25.0,28.0,36,0.00,,,0.00,526,WeatherTracker,2013-04-16 16:28:00,
2013-04-16 09:33:00,57.1,30.4,30.07,North,360,9.0,30.0,36,0.00,,,0.00,545,WeatherTracker,2013-04-16 16:33:00,
2013-04-16 09:38:00,57.4,30.7,30.06,NNW,329,17.0,30.0,36,0.00,,,0.00,563,WeatherTracker,2013-04-16 16:38:00,
2013-04-16 09:43:00,58.0,31.2,30.07,NNE,23,16.0,30.0,36,0.00,,,0.00,580,WeatherTracker,2013-04-16 16:43:00,
2013-04-16 09:48:00,58.1,30.6,30.06,NW,310,19.0,26.0,35,0.00,,,0.00,592,WeatherTracker,2013-04-16 16:48:00,
2013-04-16 09:53:00,58.1,29.9,30.06,North,11,7.0,30.0,34,0.00,,,0.00,605,WeatherTracker,2013-04-16 16:53:00,
2013-04-16 09:58:00,58.5,30.2,30.06,NNW,331,12.0,30.0,34,0.00,,,0.00,621,WeatherTracker,2013-04-16 16:58:00,
2013-04-16 10:03:00,59.0,30.7,30.06,NW,319,14.0,27.0,34,0.00,,,0.00,638,WeatherTracker,2013-04-16 17:03:00,
2013-04-16 10:08:00,59.3,30.9,30.06,WNW,286,25.0,27.0,34,0.00,,,0.00,652,WeatherTracker,2013-04-16 17:08:00,
2013-04-16 10:13:00,59.4,29.5,30.06,NNW,340,24.0,32.0,32,0.00,,,0.00,663,WeatherTracker,2013-04-16 17:13:00,
2013-04-16 10:19:00,59.7,29.8,30.07,WNW,289,23.0,32.0,32,0.00,,,0.00,680,WeatherTracker,2013-04-16 17:19:00,
2013-04-16 10:24:00,60.0,30.1,30.07,NW,310,3.0,27.0,32,0.00,,,0.00,696,WeatherTracker,2013-04-16 17:24:00,
2013-04-16 10:29:00,60.6,30.6,30.07,NNW,331,15.0,26.0,32,0.00,,,0.00,703,WeatherTracker,2013-04-16 17:29:00,
2013-04-16 10:34:00,60.8,30.8,30.07,WNW,290,16.0,28.0,32,0.00,,,0.00,717,WeatherTracker,2013-04-16 17:34:00,
2013-04-16 10:39:00,61.1,30.2,30.07,WNW,301,19.0,28.0,31,0.00,,,0.00,731,WeatherTracker,2013-04-16 17:39:00,
2013-04-16 10:44:00,61.2,29.5,30.06,NW,316,11.0,26.0,30,0.00,,,0.00,742,WeatherTracker,2013-04-16 17:44:00,
2013-04-16 10:49:00,61.4,30.5,30.06,WNW,302,11.0,26.0,31,0.00,,,0.00,754,WeatherTracker,2013-04-16 17:49:00,
2013-04-16 10:54:00,61.8,30.0,30.07,NW,313,18.0,26.0,30,0.00,,,0.00,766,WeatherTracker,2013-04-16 17:54:00,
2013-04-16 10:59:00,62.1,31.1,30.07,NW,311,6.0,27.0,31,0.00,,,0.00,775,WeatherTracker,2013-04-16 17:59:00,
2013-04-16 11:04:00,62.3,29.6,30.07,NNW,345,24.0,28.0,29,0.00,,,0.00,788,WeatherTracker,2013-04-16 18:04:00,
2013-04-16 11:09:00,62.5,29.8,30.07,NNW,332,16.0,30.0,29,0.00,,,0.00,800,WeatherTracker,2013-04-16 18:09:00,
2013-04-16 11:14:00,62.8,30.9,30.07,NNW,346,11.0,30.0,30,0.00,,,0.00,805,WeatherTracker,2013-04-16 18:14:00,
2013-04-16 11:19:00,63.3,29.6,30.07,NW,326,23.0,28.0,28,0.00,,,0.00,819,WeatherTracker,2013-04-16 18:19:00,
2013-04-16 11:24:00,63.5,28.9,30.07,NW,319,20.0,30.0,27,0.00,,,0.00,824,WeatherTracker,2013-04-16 18:24:00,
2013-04-16 11:29:00,63.5,28.9,30.07,WNW,298,12.0,30.0,27,0.00,,,0.00,837,WeatherTracker,2013-04-16 18:29:00,
2013-04-16 11:34:00,63.9,30.2,30.07,North,355,5.0,22.0,28,0.00,,,0.00,842,WeatherTracker,2013-04-16 18:34:00,
2013-04-16 11:39:00,64.2,29.5,30.07,WNW,284,15.0,22.0,27,0.00,,,0.00,853,WeatherTracker,2013-04-16 18:39:00,
2013-04-16 11:44:00,64.4,29.7,30.07,West,281,13.0,25.0,27,0.00,,,0.00,865,WeatherTracker,2013-04-16 18:44:00,
2013-04-16 11:49:00,64.5,29.8,30.07,NW,324,7.0,25.0,27,0.00,,,0.00,874,WeatherTracker,2013-04-16 18:49:00,
2013-04-16 11:55:00,65.0,29.3,30.07,WNW,290,3.0,26.0,26,0.00,,,0.00,882,WeatherTracker,2013-04-16 18:55:00,
2013-04-16 12:00:00,65.5,28.7,30.07,WNW,297,9.0,19.0,25,0.00,,,0.00,889,WeatherTracker,2013-04-16 19:00:00,
2013-04-16 12:05:00,65.5,29.7,30.07,NW,314,1.0,21.0,26,0.00,,,0.00,891,WeatherTracker,2013-04-16 19:05:00,
2013-04-16 12:10:00,65.7,29.9,30.07,WNW,302,1.0,21.0,26,0.00,,,0.00,896,WeatherTracker,2013-04-16 19:10:00,
2013-04-16 12:15:00,66.1,30.2,30.07,NW,319,9.0,21.0,26,0.00,,,0.00,905,WeatherTracker,2013-04-16 19:15:00,
2013-04-16 12:20:00,66.6,30.6,30.07,NW,304,20.0,21.0,26,0.00,,,0.00,911,WeatherTracker,2013-04-16 19:20:00,
2013-04-16 12:25:00,66.7,30.7,30.07,WNW,294,9.0,21.0,26,0.00,,,0.00,918,WeatherTracker,2013-04-16 19:25:00,
2013-04-16 12:30:00,67.1,31.1,30.07,NNW,329,1.0,21.0,26,0.00,,,0.00,918,WeatherTracker,2013-04-16 19:30:00,
2013-04-16 12:35:00,67.6,31.5,30.07,West,280,3.0,21.0,26,0.00,,,0.00,916,WeatherTracker,2013-04-16 19:35:00,
2013-04-16 12:40:00,67.5,30.4,30.07,North,9,9.0,23.0,25,0.00,,,0.00,921,WeatherTracker,2013-04-16 19:40:00,
2013-04-16 12:45:00,67.3,30.3,30.06,North,360,11.0,23.0,25,0.00,,,0.00,923,WeatherTracker,2013-04-16 19:45:00,
2013-04-16 12:50:00,67.2,30.2,30.06,WNW,289,3.0,20.0,25,0.00,,,0.00,925,WeatherTracker,2013-04-16 19:50:00,
2013-04-16 12:55:00,67.6,29.5,30.06,NW,313,1.0,21.0,24,0.00,,,0.00,935,WeatherTracker,2013-04-16 19:55:00,
2013-04-16 13:01:00,67.5,30.4,30.06,NW,306,11.0,21.0,25,0.00,,,0.00,928,WeatherTracker,2013-04-16 20:01:00,
2013-04-16 13:06:00,67.7,30.6,30.06,West,280,0.0,23.0,25,0.00,,,0.00,933,WeatherTracker,2013-04-16 20:06:00,
2013-04-16 13:11:00,67.8,30.7,30.06,NW,323,12.0,23.0,25,0.00,,,0.00,933,WeatherTracker,2013-04-16 20:11:00,
2013-04-16 13:16:00,68.1,31.9,30.06,North,360,9.0,22.0,26,0.00,,,0.00,933,WeatherTracker,2013-04-16 20:16:00,
2013-04-16 13:21:00,68.8,29.5,30.06,NNW,334,13.0,22.0,23,0.00,,,0.00,937,WeatherTracker,2013-04-16 20:21:00,
2013-04-16 13:26:00,69.0,29.7,30.06,NW,324,1.0,20.0,23,0.00,,,0.00,933,WeatherTracker,2013-04-16 20:26:00,
2013-04-16 13:31:00,69.1,30.8,30.05,WNW,294,10.0,24.0,24,0.00,,,0.00,926,WeatherTracker,2013-04-16 20:31:00,
2013-04-16 13:36:00,69.2,29.8,30.06,NNW,327,9.0,24.0,23,0.00,,,0.00,932,WeatherTracker,2013-04-16 20:36:00,
2013-04-16 13:41:00,69.2,29.8,30.06,WNW,292,12.0,23.0,23,0.00,,,0.00,928,WeatherTracker,2013-04-16 20:41:00,
2013-04-16 13:46:00,69.3,29.9,30.06,NNW,327,12.0,21.0,23,0.00,,,0.00,925,WeatherTracker,2013-04-16 20:46:00,
2013-04-16 13:51:00,69.5,30.1,30.06,NNW,346,12.0,20.0,23,0.00,,,0.00,921,WeatherTracker,2013-04-16 20:51:00,
2013-04-16 13:56:00,69.8,30.3,30.06,NW,313,4.0,22.0,23,0.00,,,0.00,921,WeatherTracker,2013-04-16 20:56:00,
2013-04-16 14:01:00,70.0,30.5,30.05,West,271,12.0,22.0,23,0.00,,,0.00,912,WeatherTracker,2013-04-16 21:01:00,
2013-04-16 14:06:00,70.3,30.7,30.05,NNW,331,18.0,19.0,23,0.00,,,0.00,905,WeatherTracker,2013-04-16 21:06:00,
2013-04-16 14:11:00,70.3,30.7,30.05,NNW,330,11.0,23.0,23,0.00,,,0.00,898,WeatherTracker,2013-04-16 21:11:00,
2013-04-16 14:16:00,70.7,31.1,30.05,NNW,344,0.0,23.0,23,0.00,,,0.00,898,WeatherTracker,2013-04-16 21:16:00,
2013-04-16 14:21:00,71.1,31.4,30.05,WNW,300,4.0,20.0,23,0.00,,,0.00,895,WeatherTracker,2013-04-16 21:21:00,
2013-04-16 14:26:00,71.1,31.4,30.05,North,355,0.0,24.0,23,0.00,,,0.00,888,WeatherTracker,2013-04-16 21:26:00,
2013-04-16 14:31:00,71.3,31.6,30.05,WNW,289,8.0,24.0,23,0.00,,,0.00,881,WeatherTracker,2013-04-16 21:31:00,
2013-04-16 14:36:00,71.4,30.6,30.05,West,278,2.0,21.0,22,0.00,,,0.00,879,WeatherTracker,2013-04-16 21:36:00,
2013-04-16 14:41:00,71.2,31.5,30.05,WNW,290,4.0,25.0,23,0.00,,,0.00,863,WeatherTracker,2013-04-16 21:41:00,
2013-04-16 14:46:00,71.3,31.6,30.05,North,360,15.0,25.0,23,0.00,,,0.00,868,WeatherTracker,2013-04-16 21:46:00,
2013-04-16 14:51:00,71.5,30.7,30.05,WNW,290,2.0,24.0,22,0.00,,,0.00,854,WeatherTracker,2013-04-16 21:51:00,
2013-04-16 14:56:00,71.7,30.8,30.05,NW,326,14.0,24.0,22,0.00,,,0.00,842,WeatherTracker,2013-04-16 21:56:00,
2013-04-16 15:01:00,72.0,31.1,30.05,NNW,328,2.0,18.0,22,0.00,,,0.00,842,WeatherTracker,2013-04-16 22:01:00,
2013-04-16 15:07:00,72.0,29.9,30.04,NNW,342,13.0,20.0,21,0.00,,,0.00,826,WeatherTracker,2013-04-16 22:07:00,
2013-04-16 15:12:00,71.9,29.8,30.04,WNW,292,11.0,20.0,21,0.00,,,0.00,819,WeatherTracker,2013-04-16 22:12:00,
2013-04-16 15:17:00,71.6,29.6,30.05,NW,315,1.0,25.0,21,0.00,,,0.00,814,WeatherTracker,2013-04-16 22:17:00,
2013-04-16 15:22:00,71.7,30.8,30.04,SW,223,8.0,25.0,22,0.00,,,0.00,798,WeatherTracker,2013-04-16 22:22:00,
2013-04-16 15:27:00,71.7,30.8,30.04,West,265,13.0,22.0,22,0.00,,,0.00,789,WeatherTracker,2013-04-16 22:27:00,
2013-04-16 15:32:00,71.7,30.8,30.04,NW,324,8.0,21.0,22,0.00,,,0.00,775,WeatherTracker,2013-04-16 22:32:00,
2013-04-16 15:37:00,72.0,28.7,30.04,NNW,337,2.0,21.0,20,0.00,,,0.00,765,WeatherTracker,2013-04-16 22:37:00,
2013-04-16 15:42:00,72.3,30.2,30.04,WNW,283,1.0,21.0,21,0.00,,,0.00,752,WeatherTracker,2013-04-16 22:42:00,
2013-04-16 15:47:00,72.2,31.2,30.04,West,279,2.0,20.0,22,0.00,,,0.00,740,WeatherTracker,2013-04-16 22:47:00,
2013-04-16 15:52:00,72.1,31.2,30.03,NNW,346,5.0,19.0,22,0.00,,,0.00,724,WeatherTracker,2013-04-16 22:52:00,
2013-04-16 15:57:00,72.2,31.2,30.04,WNW,296,2.0,19.0,22,0.00,,,0.00,708,WeatherTracker,2013-04-16 22:57:00,
2013-04-16 16:02:00,72.2,30.1,30.03,NW,323,1.0,19.0,21,0.00,,,0.00,694,WeatherTracker,2013-04-16 23:02:00,
2013-04-16 16:07:00,72.3,31.3,30.04,NW,323,12.0,20.0,22,0.00,,,0.00,682,WeatherTracker,2013-04-16 23:07:00,
2013-04-16 16:12:00,72.2,31.2,30.03,NW,309,4.0,20.0,22,0.00,,,0.00,673,WeatherTracker,2013-04-16 23:12:00,
2013-04-16 16:17:00,72.2,31.2,30.03,NNW,340,1.0,20.0,22,0.00,,,0.00,656,WeatherTracker,2013-04-16 23:17:00,
2013-04-16 16:22:00,71.7,29.7,30.03,WNW,300,13.0,25.0,21,0.00,,,0.00,638,WeatherTracker,2013-04-16 23:22:00,
2013-04-16 16:27:00,71.6,29.6,30.03,West,268,1.0,26.0,21,0.00,,,0.00,633,WeatherTracker,2013-04-16 23:27:00,
2013-04-16 16:32:00,71.4,30.6,30.03,NW,323,17.0,26.0,22,0.00,,,0.00,615,WeatherTracker,2013-04-16 23:32:00,
2013-04-16 16:37:00,71.5,30.7,30.03,NNW,346,15.0,21.0,22,0.00,,,0.00,594,WeatherTracker,2013-04-16 23:37:00,
2013-04-16 16:43:00,71.9,29.8,30.03,WNW,291,0.0,20.0,21,0.00,,,0.00,582,WeatherTracker,2013-04-16 23:43:00,
2013-04-16 16:48:00,72.1,30.0,30.03,NNW,338,3.0,20.0,21,0.00,,,0.00,568,WeatherTracker,2013-04-16 23:48:00,
2013-04-16 16:53:00,71.9,29.8,30.03,NW,306,1.0,19.0,21,0.00,,,0.00,550,WeatherTracker,2013-04-16 23:53:00,
2013-04-16 16:58:00,71.7,30.8,30.03,WSW,257,0.0,19.0,22,0.00,,,0.00,536,WeatherTracker,2013-04-16 23:58:00,
2013-04-16 17:03:00,72.0,29.9,30.03,NW,305,12.0,20.0,21,0.00,,,0.00,526,WeatherTracker,2013-04-17 00:03:00,
2013-04-16 17:08:00,72.2,30.1,30.03,North,360,3.0,21.0,21,0.00,,,0.00,508,WeatherTracker,2013-04-17 00:08:00,
2013-04-16 17:13:00,72.5,29.1,30.03,NNW,335,11.0,21.0,20,0.00,,,0.00,492,WeatherTracker,2013-04-17 00:13:00,
2013-04-16 17:18:00,72.4,29.1,30.03,NNW,327,0.0,20.0,20,0.00,,,0.00,473,WeatherTracker,2013-04-17 00:18:00,
2013-04-16 17:23:00,72.4,30.3,30.03,WNW,298,3.0,20.0,21,0.00,,,0.00,455,WeatherTracker,2013-04-17 00:23:00,
2013-04-16 17:28:00,72.3,30.2,30.03,NNW,329,1.0,20.0,21,0.00,,,0.00,438,WeatherTracker,2013-04-17 00:28:00,
2013-04-16 17:33:00,72.2,30.1,30.03,West,272,11.0,16.0,21,0.00,,,0.00,427,WeatherTracker,2013-04-17 00:33:00,
2013-04-16 17:38:00,71.7,28.5,30.03,NW,311,2.0,22.0,20,0.00,,,0.00,403,WeatherTracker,2013-04-17 00:38:00,
2013-04-16 17:43:00,71.6,29.6,30.04,NNW,340,5.0,22.0,21,0.00,,,0.00,385,WeatherTracker,2013-04-17 00:43:00,
2013-04-16 17:48:00,71.7,29.7,30.04,WNW,288,1.0,20.0,21,0.00,,,0.00,367,WeatherTracker,2013-04-17 00:48:00,
2013-04-16 17:53:00,71.5,28.3,30.04,NW,316,4.0,20.0,20,0.00,,,0.00,353,WeatherTracker,2013-04-17 00:53:00,
2013-04-16 17:58:00,71.0,27.9,30.04,NW,315,7.0,20.0,20,0.00,,,0.00,330,WeatherTracker,2013-04-17 00:58:00,
2013-04-16 18:03:00,70.4,28.6,30.04,WNW,296,15.0,20.0,21,0.00,,,0.00,311,WeatherTracker,2013-04-17 01:03:00,
2013-04-16 18:08:00,70.1,29.5,30.04,NNW,333,16.0,29.0,22,0.00,,,0.00,294,WeatherTracker,2013-04-17 01:08:00,
2013-04-16 18:13:00,69.9,28.2,30.04,NW,323,11.0,29.0,21,0.00,,,0.00,283,WeatherTracker,2013-04-17 01:13:00,
2013-04-16 18:18:00,69.4,27.8,30.04,NNW,347,15.0,22.0,21,0.00,,,0.00,260,WeatherTracker,2013-04-17 01:18:00,
2013-04-16 18:24:00,69.4,28.9,30.04,NW,306,11.0,22.0,22,0.00,,,0.00,237,WeatherTracker,2013-04-17 01:24:00,
2013-04-16 18:29:00,69.2,28.7,30.04,NNW,340,10.0,24.0,22,0.00,,,0.00,218,WeatherTracker,2013-04-17 01:29:00,
2013-04-16 18:34:00,68.8,28.4,30.05,NNW,333,2.0,24.0,22,0.00,,,0.00,197,WeatherTracker,2013-04-17 01:34:00,
2013-04-16 18:39:00,68.5,29.2,30.05,NNW,342,3.0,21.0,23,0.00,,,0.00,178,WeatherTracker,2013-04-17 01:39:00,
2013-04-16 18:44:00,68.0,28.8,30.04,NW,308,5.0,26.0,23,0.00,,,0.00,155,WeatherTracker,2013-04-17 01:44:00,
2013-04-16 18:49:00,67.5,28.4,30.05,NW,317,12.0,26.0,23,0.00,,,0.00,141,WeatherTracker,2013-04-17 01:49:00,
2013-04-16 18:54:00,66.8,28.8,30.05,NNW,333,4.0,22.0,24,0.00,,,0.00,74,WeatherTracker,2013-04-17 01:54:00,
2013-04-16 18:59:00,66.2,29.3,30.05,North,5,5.0,20.0,25,0.00,,,0.00,95,WeatherTracker,2013-04-17 01:59:00,
2013-04-16 19:04:00,65.7,28.9,30.05,NW,306,1.0,23.0,25,0.00,,,0.00,79,WeatherTracker,2013-04-17 02:04:00,
2013-04-16 19:09:00,65.3,28.6,30.06,NW,317,3.0,23.0,25,0.00,,,0.00,35,WeatherTracker,2013-04-17 02:09:00,
2013-04-16 19:14:00,64.9,28.2,30.06,NNW,339,10.0,21.0,25,0.00,,,0.00,23,WeatherTracker,2013-04-17 02:14:00,
2013-04-16 19:19:00,64.5,28.9,30.06,NW,320,1.0,19.0,26,0.00,,,0.00,19,WeatherTracker,2013-04-17 02:19:00,
2013-04-16 19:24:00,64.2,29.5,30.06,North,349,1.0,17.0,27,0.00,,,0.00,18,WeatherTracker,2013-04-17 02:24:00,
2013-04-16 19:29:00,63.9,29.3,30.06,North,355,2.0,16.0,27,0.00,,,0.00,14,WeatherTracker,2013-04-17 02:29:00,
2013-04-16 19:34:00,63.6,29.0,30.07,NW,325,3.0,11.0,27,0.00,,,0.00,11,WeatherTracker,2013-04-17 02:34:00,
2013-04-16 19:39:00,63.3,28.8,30.07,North,355,3.0,15.0,27,0.00,,,0.00,7,WeatherTracker,2013-04-17 02:39:00,
2013-04-16 19:44:00,63.0,27.6,30.07,NNW,332,5.0,17.0,26,0.00,,,0.00,5,WeatherTracker,2013-04-17 02:44:00,
2013-04-16 19:49:00,62.6,27.2,30.07,NW,315,13.0,17.0,26,0.00,,,0.00,0,WeatherTracker,2013-04-17 02:49:00,
2013-04-16 19:54:00,62.2,27.8,30.08,NW,321,9.0,16.0,27,0.00,,,0.00,0,WeatherTracker,2013-04-17 02:54:00,
2013-04-16 19:59:00,61.8,27.5,30.08,NNW,330,6.0,16.0,27,0.00,,,0.00,0,WeatherTracker,2013-04-17 02:59:00,
2013-04-16 20:04:00,61.4,28.0,30.08,NNW,327,6.0,16.0,28,0.00,,,0.00,0,WeatherTracker,2013-04-17 03:04:00,
2013-04-16 20:09:00,61.1,27.8,30.08,WNW,298,0.0,14.0,28,0.00,,,0.00,0,WeatherTracker,2013-04-17 03:09:00,
2013-04-16 20:14:00,60.7,27.4,30.08,NW,322,2.0,12.0,28,0.00,,,0.00,0,WeatherTracker,2013-04-17 03:14:00,
2013-04-16 20:19:00,60.4,28.0,30.09,NNW,344,2.0,11.0,29,0.00,,,0.00,0,WeatherTracker,2013-04-17 03:19:00,
2013-04-16 20:25:00,60.0,27.7,30.09,NW,312,0.0,13.0,29,0.00,,,0.00,0,WeatherTracker,2013-04-17 03:25:00,
2013-04-16 20:30:00,59.7,27.4,30.09,NNW,331,14.0,14.0,29,0.00,,,0.00,0,WeatherTracker,2013-04-17 03:30:00,
2013-04-16 20:35:00,59.5,28.0,30.09,NNW,327,1.0,15.0,30,0.00,,,0.00,0,WeatherTracker,2013-04-17 03:35:00,
2013-04-16 20:40:00,59.2,27.8,30.10,NNW,333,1.0,15.0,30,0.00,,,0.00,0,WeatherTracker,2013-04-17 03:40:00,
2013-04-16 20:45:00,59.1,27.7,30.10,NNW,339,1.0,13.0,30,0.00,,,0.00,0,WeatherTracker,2013-04-17 03:45:00,
2013-04-16 20:50:00,59.0,27.6,30.10,North,351,1.0,13.0,30,0.00,,,0.00,0,WeatherTracker,2013-04-17 03:50:00,
2013-04-16 20:55:00,58.9,27.5,30.10,NNW,346,1.0,14.0,30,0.00,,,0.00,0,WeatherTracker,2013-04-17 03:55:00,
2013-04-16 21:00:00,58.8,27.4,30.10,NNW,335,1.0,14.0,30,0.00,,,0.00,0,WeatherTracker,2013-04-17 04:00:00,
2013-04-16 21:01:00,58.8,26.6,30.10,North,5,3.0,15.0,29,0.00,,,0.00,0,WeatherTracker,2013-04-17 04:01:00,
2013-04-16 21:03:00,58.7,27.4,30.11,North,355,1.0,15.0,30,0.00,,,0.00,0,WeatherTracker,2013-04-17 04:03:00,
2013-04-16 21:08:00,58.5,27.2,30.11,NW,315,2.0,15.0,30,0.00,,,0.00,0,WeatherTracker,2013-04-17 04:08:00,
2013-04-16 21:13:00,58.2,27.7,30.11,NNW,337,0.0,11.0,31,0.00,,,0.00,0,WeatherTracker,2013-04-17 04:13:00,
2013-04-16 21:18:00,58.1,27.6,30.11,NNW,348,0.0,12.0,31,0.00,,,0.00,0,WeatherTracker,2013-04-17 04:18:00,
2013-04-16 21:23:00,58.1,27.6,30.12,NNW,346,2.0,12.0,31,0.00,,,0.00,0,WeatherTracker,2013-04-17 04:23:00,
2013-04-16 21:28:00,58.0,28.3,30.12,NNW,329,1.0,8.0,32,0.00,,,0.00,0,WeatherTracker,2013-04-17 04:28:00,
2013-04-16 21:33:00,57.7,28.1,30.12,NW,322,0.0,11.0,32,0.00,,,0.00,0,WeatherTracker,2013-04-17 04:33:00,
2013-04-16 21:38:00,57.3,28.4,30.13,NW,315,2.0,13.0,33,0.00,,,0.00,0,WeatherTracker,2013-04-17 04:38:00,
2013-04-16 21:43:00,56.9,28.1,30.13,NW,321,0.0,13.0,33,0.00,,,0.00,0,WeatherTracker,2013-04-17 04:43:00,
2013-04-16 21:48:00,56.5,28.5,30.13,NW,323,0.0,10.0,34,0.00,,,0.00,0,WeatherTracker,2013-04-17 04:48:00,
2013-04-16 21:53:00,56.1,28.1,30.13,NW,321,1.0,4.0,34,0.00,,,0.00,0,WeatherTracker,2013-04-17 04:53:00,
2013-04-16 21:58:00,55.8,28.6,30.13,NNW,331,1.0,9.0,35,0.00,,,0.00,0,WeatherTracker,2013-04-17 04:58:00,
2013-04-16 22:03:00,55.5,28.3,30.14,NW,318,2.0,9.0,35,0.00,,,0.00,0,WeatherTracker,2013-04-17 05:03:00,
2013-04-16 22:08:00,55.3,28.8,30.14,NW,311,0.0,10.0,36,0.00,,,0.00,0,WeatherTracker,2013-04-17 05:08:00,
2013-04-16 22:13:00,55.0,28.5,30.14,NNW,330,0.0,10.0,36,0.00,,,0.00,0,WeatherTracker,2013-04-17 05:13:00,
2013-04-16 22:18:00,54.7,28.3,30.14,NNE,13,2.0,11.0,36,0.00,,,0.00,0,WeatherTracker,2013-04-17 05:18:00,
2013-04-16 22:23:00,54.6,28.2,30.14,NNW,327,2.0,11.0,36,0.00,,,0.00,0,WeatherTracker,2013-04-17 05:23:00,
2013-04-16 22:28:00,54.4,28.7,30.15,NW,313,0.0,10.0,37,0.00,,,0.00,0,WeatherTracker,2013-04-17 05:28:00,
2013-04-16 22:33:00,54.2,29.2,30.15,NW,320,0.0,5.0,38,0.00,,,0.00,0,WeatherTracker,2013-04-17 05:33:00,
2013-04-16 22:38:00,53.9,29.5,30.15,WNW,289,1.0,4.0,39,0.00,,,0.00,0,WeatherTracker,2013-04-17 05:38:00,
2013-04-16 22:43:00,53.7,29.3,30.15,NW,325,0.0,3.0,39,0.00,,,0.00,0,WeatherTracker,2013-04-17 05:43:00,
2013-04-16 22:48:00,53.4,29.7,30.16,NW,306,0.0,3.0,40,0.00,,,0.00,0,WeatherTracker,2013-04-17 05:48:00,
2013-04-16 22:53:00,53.2,28.9,30.16,NW,321,0.0,4.0,39,0.00,,,0.00,0,WeatherTracker,2013-04-17 05:53:00,
2013-04-16 22:59:00,53.0,29.3,30.16,NW,304,0.0,4.0,40,0.00,,,0.00,0,WeatherTracker,2013-04-17 05:59:00,
2013-04-16 23:04:00,52.9,29.2,30.16,WNW,300,0.0,4.0,40,0.00,,,0.00,0,WeatherTracker,2013-04-17 06:04:00,
2013-04-16 23:09:00,52.8,29.8,30.16,NW,309,0.0,8.0,41,0.00,,,0.00,0,WeatherTracker,2013-04-17 06:09:00,
2013-04-16 23:14:00,52.8,29.8,30.16,NNW,329,1.0,9.0,41,0.00,,,0.00,0,WeatherTracker,2013-04-17 06:14:00,
2013-04-16 23:19:00,52.7,30.3,30.16,NNW,327,9.0,9.0,42,0.00,,,0.00,0,WeatherTracker,2013-04-17 06:19:00,
2013-04-16 23:24:00,52.6,30.2,30.16,NW,311,0.0,9.0,42,0.00,,,0.00,0,WeatherTracker,2013-04-17 06:24:00,
2013-04-16 23:29:00,52.4,30.6,30.16,NW,322,1.0,9.0,43,0.00,,,0.00,0,WeatherTracker,2013-04-17 06:29:00,
2013-04-16 23:34:00,52.3,30.5,30.17,NW,324,0.0,10.0,43,0.00,,,0.00,0,WeatherTracker,2013-04-17 06:34:00,
2013-04-16 23:39:00,52.1,30.3,30.17,NNW,336,1.0,10.0,43,0.00,,,0.00,0,WeatherTracker,2013-04-17 06:39:00,
2013-04-16 23:44:00,52.1,30.3,30.17,WNW,286,9.0,11.0,43,0.00,,,0.00,0,WeatherTracker,2013-04-17 06:44:00,
2013-04-16 23:49:00,52.0,30.2,30.17,NW,313,1.0,11.0,43,0.00,,,0.00,0,WeatherTracker,2013-04-17 06:49:00,
2013-04-16 23:54:00,52.0,30.2,30.17,NNW,332,0.0,12.0,43,0.00,,,0.00,0,WeatherTracker,2013-04-17 06:54:00,
2013-04-16 23:59:00,51.9,30.1,30.17,NNW,338,0.0,12.0,43,0.00,,,0.00,0,WeatherTracker,2013-04-17 06:59:00,